Weather History for Klawock, AK

Change the Weather History Date:

Monday, October 6, 2014

  Actual Average Record
Temperature  
Mean Temperature 45 °F -  
Max Temperature 53 °F 51 °F 60 °F (2012)
Min Temperature 39 °F 40 °F 37 °F (1997)
Degree Days  
Heating Degree Days 20    
Moisture  
Dew Point 43 °F    
Average Humidity 92    
Maximum Humidity 100    
Minimum Humidity 71    
Precipitation  
Precipitation 0.06 in - - ()
Sea Level Pressure  
Sea Level Pressure 30.06 in    
Wind  
Wind Speed 2 mph (ESE)    
Max Wind Speed 7 mph    
Max Gust Speed -    
Visibility 5 miles    
Events Fog , Rain    
Averages and records for this station are not official NWS values.
T = Trace of Precipitation, MM = Missing Value Source: NWS Daily Summary

Daily Weather History Graph

Daily Weather History Graph

Search for Another Location

Airport:

Trip Planner

Search our weather history database for the weather conditions in past years. The results will help you decide how hot, cold, wet, or windy it might be!

Date:

Astronomy

Oct. 06, 2014 Rise Set
Actual Time 7:05 AM AKDT 6:14 PM AKDT
Civil Twilight 6:28 AM AKDT 6:51 PM AKDT
Nautical Twilight 5:45 AM AKDT 7:33 PM AKDT
Astronomical Twilight 5:02 AM AKDT 8:17 PM AKDT
Moon 5:28 PM AKDT (10/6) 4:41 AM AKDT (10/6)
Length of Visible Light 12h 22m
Length of Day
11h 09m
Waxing Gibbous, 96% of the Moon is Illuminated
Oct 6
Waxing Gibbous
Oct 8
Full
Oct 15
Last Quarter
Oct 23
New
Oct 30
First Quarter

Hourly Weather History & Observations

Time (AKDT) Temp. Windchill Dew Point Humidity Pressure Visibility Wind Dir Wind Speed Gust Speed Precip Events Conditions
12:10 AM 50.0 °F - 46.9 °F 89% 29.97 in 8.0 mi Variable 3.5 mph - 0.00 in Rain Light Rain
12:38 AM 50.0 °F - 46.9 °F 89% 29.98 in 9.0 mi Calm Calm - 0.00 in Rain Light Rain
12:53 AM 48.9 °F - 46.9 °F 93% 29.99 in 10.0 mi SSE 3.5 mph - 0.00 in Rain Light Rain
1:53 AM 48.9 °F - 46.0 °F 90% 30.01 in 10.0 mi South 6.9 mph - 0.01 in   Overcast
2:53 AM 48.0 °F - 46.0 °F 93% 30.02 in 10.0 mi SSW 3.5 mph - 0.00 in   Mostly Cloudy
3:53 AM 46.9 °F - 45.0 °F 93% 30.03 in 10.0 mi South 4.6 mph - N/A   Overcast
4:53 AM 46.0 °F - 44.1 °F 93% 30.04 in 4.0 mi Calm Calm - N/A   Partly Cloudy
5:19 AM 45.0 °F - 43.0 °F 93% 30.04 in 1.8 mi Calm Calm - N/A   Partly Cloudy
5:44 AM 44.1 °F - 42.1 °F 93% 30.04 in 1.5 mi Calm Calm - N/A   Mostly Cloudy
5:51 AM 44.6 °F - 42.8 °F 93% 30.04 in 2.5 mi Calm Calm - N/A   Scattered Clouds
5:53 AM 44.1 °F - 43.0 °F 96% 30.05 in 4.0 mi Calm Calm - N/A   Scattered Clouds
6:02 AM 44.1 °F - 42.1 °F 93% 30.05 in 3.0 mi Calm Calm - N/A   Mostly Cloudy
6:04 AM 44.1 °F - 42.1 °F 93% 30.05 in 1.8 mi Calm Calm - N/A   Mostly Cloudy
6:06 AM 44.1 °F 42.5 °F 42.1 °F 93% 30.05 in 1.0 mi NNE 3.5 mph - N/A   Mostly Cloudy
6:08 AM 44.1 °F 42.5 °F 43.0 °F 96% 30.04 in 0.5 mi NNE 3.5 mph - N/A Fog Fog
6:42 AM 45.0 °F 43.5 °F 44.1 °F 97% 30.05 in 1.5 mi Variable 3.5 mph - N/A   Overcast
6:53 AM 45.0 °F 42.6 °F 44.1 °F 97% 30.06 in 3.0 mi East 4.6 mph - N/A   Overcast
6:55 AM 44.1 °F 42.5 °F 44.1 °F 100% 30.05 in 1.8 mi East 3.5 mph - N/A   Overcast
7:00 AM 44.1 °F - 43.0 °F 96% 30.05 in 0.8 mi Calm Calm - N/A   Overcast
7:03 AM 43.0 °F - 43.0 °F 100% 30.05 in 0.8 mi Calm Calm - N/A   Overcast
7:08 AM 43.0 °F - 43.0 °F 100% 30.06 in 1.0 mi Calm Calm - N/A   Overcast
7:11 AM 43.0 °F - 42.1 °F 97% 30.06 in 1.5 mi Calm Calm - N/A   Overcast
7:21 AM 44.1 °F 42.5 °F 43.0 °F 96% 30.06 in 0.8 mi ESE 3.5 mph - N/A   Overcast
7:33 AM 43.0 °F - 42.1 °F 97% 30.06 in 0.2 mi Calm Calm - N/A Fog Fog
7:53 AM 43.0 °F - 42.1 °F 97% 30.06 in 0.2 mi Calm Calm - N/A Fog Fog
8:02 AM 43.0 °F - 42.1 °F 97% 30.06 in 0.2 mi Calm Calm - N/A Fog Fog
8:11 AM 43.0 °F - 42.1 °F 97% 30.06 in 0.8 mi Calm Calm - N/A   Overcast
8:34 AM 45.0 °F - 44.1 °F 97% 30.07 in 1.8 mi Calm Calm - N/A   Overcast
8:53 AM 45.0 °F - 45.0 °F 100% 30.08 in 5.0 mi Calm Calm - 0.00 in Rain Light Rain
9:50 AM 48.2 °F - 46.4 °F 93% 30.08 in 10.0 mi Calm Calm - 0.02 in   Partly Cloudy
9:53 AM 48.9 °F - 46.9 °F 93% 30.09 in 10.0 mi Calm Calm - 0.02 in   Partly Cloudy
10:53 AM 51.1 °F - 46.0 °F 83% 30.10 in 10.0 mi South 4.6 mph - N/A   Clear
11:53 AM 51.1 °F - 45.0 °F 80% 30.11 in 10.0 mi Calm Calm - 0.00 in   Mostly Cloudy
12:53 PM 51.1 °F - 44.1 °F 77% 30.11 in 10.0 mi South 5.8 mph - N/A   Mostly Cloudy
1:53 PM 50.0 °F - 43.0 °F 77% 30.11 in 8.0 mi West 5.8 mph - 0.00 in Rain Light Rain
2:53 PM 50.0 °F - 41.0 °F 71% 30.11 in 10.0 mi Calm Calm - 0.00 in   Overcast
3:53 PM 51.1 °F - 43.0 °F 74% 30.10 in 10.0 mi Calm Calm - N/A   Clear
4:53 PM 50.0 °F - 44.1 °F 80% 30.09 in 10.0 mi Calm Calm - N/A   Clear
5:53 PM 46.9 °F - 44.1 °F 90% 30.08 in 10.0 mi Calm Calm - 0.01 in Rain Light Rain
6:53 PM 46.0 °F - 44.1 °F 93% 30.08 in 10.0 mi Calm Calm - 0.00 in   Overcast
7:53 PM 45.0 °F - 43.0 °F 93% 30.09 in 10.0 mi Calm Calm - N/A   Mostly Cloudy
8:53 PM 42.1 °F - 39.9 °F 92% 30.09 in 7.0 mi Calm Calm - N/A   Clear
9:03 PM 42.1 °F - 41.0 °F 96% 30.08 in 1.8 mi Calm Calm - N/A   Clear
9:36 PM 41.0 °F - 39.9 °F 96% 30.08 in 1.5 mi Calm Calm - N/A   Partly Cloudy
9:46 PM 39.9 °F - 39.9 °F 100% 30.08 in 3.0 mi Calm Calm - N/A   Clear
9:53 PM 41.0 °F - 39.0 °F 93% 30.09 in 4.0 mi Calm Calm - N/A   Scattered Clouds
10:11 PM 41.0 °F 39.0 °F 39.9 °F 96% 30.08 in 7.0 mi NNE 3.5 mph - N/A   Mostly Cloudy
10:53 PM 39.9 °F 37.8 °F 39.9 °F 100% 30.09 in 7.0 mi North 3.5 mph - N/A   Overcast
11:53 PM 43.0 °F 40.3 °F 42.1 °F 97% 30.09 in 8.0 mi East 4.6 mph - 0.02 in Rain Light Rain